SCP
0 0 0 0 0 0 0 0 0 0 0 0 0 0 0 0 0 0 -0 0 0 0 0 0 -0 0 -0 0 0 0 0 0 0 0 0 0 0 0 0 0 0 0 0 0 -0 -0 -0
0 0 0 0 0 0 0 0 0 0 0 0 0 0 0 0 -0 -0 -0 0 0 0 0 -0 -0 -0 0 0 0 0 0 0 0 0 0 0 0 0 0 0 0 -0 0 0 0 -0 -0
0 0 0 0 0 0 0 0 0 0 0 0 0 0 0 0 -0 -0 -0 -0 0 0 -0 -0 -0 0 0 0 0 0 0 0 0 0 0 0 0 0 0 0 0 0 0 0 0 0 0
0 0 0 0 0 0 0 0 0 0 0 0 0 0 0 0 -0 -0 -0 -0 0 -0 0 -0 -0 0 0 0 0 0 -0 0 0 0 0 0 0 0 0 0 0 0 0 0 0 0 0
0 0 0 0 0 0 0 0 0 0 0 0 0 0 0 0 -0 -0 -0 -0 -0 0 0 -0 0 0 0 0 0 0 0 0 0 0 0 0 0 0 0 0 0 0 0 0 0 0 0
0 0 0 0 0 0 0 0 0 0 0 0 0 0 0 0 -0 -0 -0 0 -0 -0 -0 -0 0 0 0 0 0 0 0 0 0 0 0 0 0 0 0 0 0 0 0 0 0 0 0
0 0 0 0 0 0 0 0 0 0 0 0 0 0 0 0 0 -0 0 -0 -0 0 0 0 0 0 0 0 0 0 0 0 0 0 0 0 0 0 0 0 0 0 0 0 0 0 0
0 0 0 0 0 0 0 0 0 0 0 0 0 0 0 0 0 0 -0 -0 -0 0 0 0 0 -0 0 0 0 0 0 0 0 0 0 0 0 0 0 0 0 0 0 0 0 0 0
0 0 0 0 0 0 0 0 0 0 0 0 0 0 0 0 0 -0 -0 -0 0 -0 0 0 0 0 0 0 0 0 0 0 0 0 0 0 0 0 0 0 0 0 0 0 0 0 0
0 0 0 0 0 0 0 0 0 0 0 0 0 0 0 0 0 0 -0 0 -0 -0 0 0 0 0 0 0 0 0 0 0 0 0 0 0 0 0 0 0 0 0 0 0 0 0 0
0 0 0 0 0 0 0 0 0 0 0 0 0 0 0 0 0 0 0 0 -0 -0 0 0 0 0 0 0 0 0 0 0 0 0 0 0 0 0 0 0 0 0 0 0 0 0 0
0 0 0 0 0 0 0 0 0 0 0 0 0 0 0 -0 0 -0 0 0 0 0 0 0 0 0 0 0 0 0 0 0 0 0 0 0 0 0 0 0 0 0 0 0 0 0 0
0 0 0 0 0 0 0 0 0 0 0 0 0 0 0 0 0 0 0 0 0 0 0 0 0 0 0 0 0 0 0 0 0 0 0 0 0 0 0 0 0 0 0 0 0 0 0
0 0 0 0 0 0 0 0 0 0 0 0 0 0 0 0 0 0 0 0 0 0 0 0 0 0 0 0 0 0 0 0 0 0 0 0 0 0 0 0 0 0 0 0 0 0 0
0 0 0 0 0 0 0 0 0 0 0 0 0 0 0 -0 0 0 0 0 0 0 0 0 0 0 0 0 0 0 0 0 0 0 0 0 0 0 0 0 0 0 0 0 0 0 0
0 0 0 0 0 0 0 0 0 0 0 0 0 0 0 0 -0 0 0 0 0 0 0 0 0 0 0 0 0 0 0 0 0 0 0 0 0 0 0 0 0 0 0 0 0 0 0
0 0 0 0 0 0 0 0 0 0 0 0 0 0 0 0 0 0 0 0 0 0 0 0 0 0 0 0 0 0 0 0 0 0 0 0 0 0 0 0 0 0 0 0 0 0 0
0 0 0 0 0 0 0 0 0 0 0 0 0 0 0 0 0 0 0 0 0 0 0 0 0 0 0 0 0 0 0 0 0 0 0 0 0 0 0 0 0 0 0 0 0 0 0
0 0 0 0 0 0 0 0 0 0 0 0 0 0 0 0 0 0 0 0 0 0 0 0 0 0 0 0 0 0 0 0 0 0 0 0 0 0 0 0 0 0 0 0 0 0 0
0 0 0 0 0 0 0 0 0 0 0 0 0 0 0 0 0 0 0 0 0 0 0 0 0 0 0 0 0 0 0 0 0 0 0 0 0 0 0 0 0 0 0 0 0 0 0
0 0 0 0 0 0 0 0 0 0 0 0 0 0 0 0 0 0 0 0 0 0 0 0 0 0 0 0 0 0 0 0 0 0 0 0 0 0 0 0 0 0 0 0 0 0 0
0 0 0 0 0 0 0 0 0 0 0 0 0 0 0 0 0 0 0 0 0 0 0 0 0 0 0 0 0 0 0 0 0 0 0 0 0 0 0 0 0 0 0 0 0 0 0
0 0 0 0 0 0 0 0 0 0 0 0 0 0 0 0 0 0 0 0 0 0 0 0 0 0 0 0 0 0 0 0 0 0 0 0 0 0 0 0 0 0 0 0 0 0 0
0 0 0 0 0 0 0 0 0 0 0 0 0 0 0 0 0 0 0 0 0 0 0 0 0 0 0 0 0 0 0 0 0 0 0 0 0 0 0 0 0 0 0 0 0 0 0
0 0 0 0 0 0 0 0 0 0 0 0 0 0 0 0 0 0 0 0 0 0 0 0 0 0 0 0 0 0 0 0 0 0 0 0 0 0 0 0 0 0 0 0 0 0 0
0 0 0 0 0 0 0 0 0 0 0 0 0 0 0 0 0 0 0 0 0 0 0 0 0 0 0 0 0 0 0 0 0 0 0 0 0 0 0 0 0 0 0 0 0 0 0
0 0 0 0 0 -0 0 0 0 0 0 0 0 0 0 0 0 0 0 0 0 0 0 0 0 0 0 0 0 0 0 0 0 0 0 0 0 0 0 0 0 0 0 0 0 0 0
-0 0 0 0 0 0 0 0 0 0 0 0 0 0 0 0 0 0 0 0 0 0 0 0 0 0 0 0 0 0 0 0 0 0 0 0 0 0 0 0 0 0 0 0 0 0 0
0 0 0 0 0 0 0 0 0 0 0 0 0 0 0 0 0 0 0 0 0 0 0 0 0 0 0 0 0 0 0 0 0 0 0 0 0 0 0 0 0 0 0 0 0 0 0
Wind_Speed_500mb
41 38 35 33 30 26 22 20 17 14 16 21 27 32 37 41 44 46 46 45 42 41 41 42 30 25 22 10 3 5 17 19 22 23 32 32 18 9 8 10 14 11 10 13 15 14 27
44 41 38 35 32 28 25 22 20 17 17 21 28 34 38 42 45 46 45 44 43 40 41 36 26 24 19 5 3 5 14 17 20 27 31 24 12 5 5 7 11 17 8 10 10 17 23
45 44 42 38 34 31 27 24 21 19 21 25 28 33 38 42 45 47 45 42 44 40 38 28 23 23 21 12 8 6 12 13 15 27 31 20 10 3 4 6 7 4 5 5 8 18 12
50 46 44 42 37 33 30 27 24 21 21 26 31 35 39 43 46 46 44 41 42 38 33 24 25 23 10 6 8 10 11 13 16 24 21 16 7 6 5 2 0 7 2 7 5 21 10
53 50 47 44 41 37 33 29 26 24 22 25 30 36 40 45 48 47 42 40 42 35 24 24 25 11 6 4 4 10 11 7 17 21 21 12 7 2 4 6 8 2 10 6 11 10 13
56 53 50 47 44 40 36 32 28 24 23 26 29 33 38 44 49 50 40 36 32 20 13 18 10 5 4 7 5 7 12 15 11 17 13 8 5 5 3 9 20 13 11 6 8 20 22
60 57 54 50 47 43 40 36 30 25 23 24 29 33 35 41 47 43 40 27 26 6 44 16 23 27 31 11 8 5 19 24 11 9 9 4 10 13 7 3 1 4 8 14 9 9 18
64 61 58 54 50 46 42 37 31 26 24 25 28 31 35 39 42 32 24 24 24 21 26 39 28 43 44 37 10 8 25 13 10 10 8 7 16 10 11 8 4 4 8 4 4 4 17
68 66 62 57 53 48 45 39 33 28 25 24 27 30 33 37 30 35 20 33 35 32 10 20 10 13 11 22 16 15 29 17 8 11 11 11 2 17 8 8 9 6 10 9 5 5 3
69 67 65 60 56 51 47 42 36 29 26 24 26 29 33 36 16 38 13 29 36 17 6 8 4 1 12 14 8 16 27 15 4 6 13 7 7 9 9 8 14 11 21 14 14 13 11
71 67 65 61 57 53 49 43 37 31 27 25 25 27 30 32 33 28 21 27 29 4 3 6 4 3 13 12 10 18 28 15 14 10 8 4 10 16 9 7 18 7 10 12 9 16 8
69 65 63 61 57 54 50 45 38 32 28 26 26 27 29 33 35 24 25 19 6 5 8 4 5 5 8 6 6 10 9 7 9 8 1 5 3 6 5 7 16 13 9 6 4 7 16
72 63 61 59 58 54 50 46 40 34 29 27 26 26 30 32 36 34 20 9 5 8 4 5 3 5 6 8 7 6 17 16 11 7 5 4 8 5 7 9 6 7 9 10 14 14 19
74 65 56 57 55 55 52 47 40 34 30 27 26 27 30 32 36 25 7 3 11 4 8 5 5 0 8 4 5 4 13 15 6 6 4 5 6 7 4 10 5 10 9 13 17 19 19
85 70 57 55 56 52 49 45 38 33 29 25 25 26 27 31 18 10 13 7 8 7 6 10 8 5 4 5 7 6 6 4 3 10 8 5 3 4 8 4 4 7 11 4 4 3 8
67 84 66 55 55 54 50 46 39 31 26 20 20 23 18 8 17 24 7 7 6 6 10 5 1 2 4 4 7 6 3 5 1 3 8 5 7 2 2 4 3 10 9 6 3 13 20
47 79 68 61 59 54 51 47 40 31 22 13 13 10 5 16 16 13 7 9 7 10 7 5 2 3 2 3 7 6 3 5 4 4 8 5 4 4 5 9 5 7 7 1 4 6 14
29 63 84 63 61 56 52 46 40 31 20 10 4 2 6 29 7 1 5 6 3 3 4 5 4 3 2 4 6 7 7 3 11 3 6 3 3 5 8 3 7 5 5 5 8 6 4
35 40 76 61 61 56 53 47 41 31 21 12 6 5 20 4 5 6 5 4 5 3 3 4 5 5 3 2 6 8 6 3 12 7 5 9 2 3 2 7 4 4 2 7 7 3 10
38 50 65 66 58 56 53 49 42 32 24 18 8 4 7 14 7 3 3 8 6 6 10 8 5 4 4 2 5 8 8 4 5 9 11 4 4 1 5 7 5 12 13 11 9 7 9
24 52 57 69 61 57 55 52 43 34 28 21 10 4 5 6 9 9 4 5 3 7 7 9 5 12 6 5 4 7 5 5 6 4 6 3 4 4 10 18 12 14 22 20 16 19 11
33 44 59 71 61 62 56 52 43 37 32 24 11 8 6 1 3 6 10 6 11 7 9 8 8 2 17 6 6 13 12 7 4 5 4 3 5 3 6 1 7 16 22 24 22 20 22
44 37 56 71 68 68 62 55 49 42 36 13 17 11 6 3 4 7 8 8 6 3 12 15 6 1 14 8 3 9 4 14 11 7 4 2 5 2 4 7 18 16 14 19 13 9 8
52 50 45 87 69 66 66 58 49 42 38 22 23 14 6 4 6 6 4 6 5 5 7 5 4 11 5 23 28 23 28 25 22 18 7 6 3 1 6 12 10 7 12 12 22 32 22
51 58 59 77 72 77 66 59 51 45 39 30 19 13 8 4 3 5 3 4 8 3 6 3 9 1 15 11 6 6 4 5 11 13 8 3 6 3 4 6 15 8 15 15 16 20 24
56 54 69 78 77 80 68 60 56 48 37 32 23 22 10 4 6 4 3 5 3 4 3 3 11 11 9 4 4 4 5 3 4 6 7 9 6 3 4 5 7 5 18 27 7 15 44
48 60 64 76 87 79 80 63 51 48 40 32 28 25 15 4 5 2 1 3 2 1 1 5 10 7 7 4 5 3 5 1 5 5 5 4 2 6 6 8 11 11 29 12 10 15 55
49 58 64 73 94 77 74 72 55 50 41 38 32 28 19 6 5 6 3 4 4 6 4 9 1 7 4 6 3 4 3 4 4 1 3 5 7 5 4 7 5 36 9 11 23 45 28
31 49 49 78 92 78 71 66 69 49 40 40 34 28 22 8 6 11 12 7 7 4 4 8 4 3 3 6 3 5 4 4 4 4 2 5 4 1 6 6 9 14 16 21 33 25 21
Wind_Direction_500mb
255 256 261 265 270 275 280 285 291 301 320 332 338 343 345 343 341 338 338 337 328 328 331 332 331 337 334 326 147 96 164 167 173 175 176 164 166 159 186 179 155 208 219 220 254 197 201
259 257 254 254 258 264 270 275 283 296 310 323 332 339 342 341 339 336 333 332 327 328 329 328 326 327 321 286 157 111 157 178 187 176 175 173 176 185 153 175 219 188 217 282 294 229 208
256 257 257 256 255 255 257 261 268 282 303 319 328 334 338 338 335 334 333 327 327 327 324 328 328 321 303 264 180 139 154 172 189 183 180 171 138 93 168 191 231 188 212 155 31 156 177
253 253 256 255 253 252 251 252 256 271 292 311 323 330 336 338 334 333 329 323 325 323 315 312 325 318 267 201 175 169 150 167 170 174 175 185 206 294 177 240 190 192 168 224 116 172 169
251 251 249 251 252 250 246 246 253 266 287 304 318 328 336 338 335 332 326 322 325 317 306 302 310 308 274 151 162 180 170 127 159 170 171 159 211 191 160 200 185 90 195 176 156 193 169
249 248 248 246 246 246 244 244 249 261 284 303 316 324 335 339 337 333 329 330 328 314 332 308 295 279 250 148 20 276 175 157 134 153 156 182 145 159 127 201 211 187 171 158 163 192 191
247 246 245 243 243 241 241 242 247 260 279 296 310 320 333 341 342 340 341 354 8 335 317 270 266 278 288 275 308 196 172 174 165 151 164 135 198 201 180 160 120 126 159 162 161 183 181
245 243 241 240 239 239 239 239 244 255 272 290 305 316 331 341 346 354 359 55 27 322 306 307 278 260 256 257 290 214 169 157 166 170 132 160 221 180 137 144 164 149 145 213 308 247 215
244 241 239 237 235 234 236 236 240 250 267 285 301 314 328 340 348 359 1 12 350 339 275 297 272 262 246 203 211 201 172 159 155 156 178 207 124 145 164 146 166 198 211 181 147 49 287
244 240 238 235 232 231 232 233 236 246 261 278 295 311 326 340 355 352 357 340 334 334 301 277 269 232 182 157 209 185 181 162 130 192 171 212 155 192 167 206 195 216 211 208 157 181 229
245 239 236 234 231 229 228 229 232 241 255 271 288 306 324 340 339 353 345 330 326 350 325 15 86 154 168 184 140 187 179 181 174 162 193 114 152 160 174 171 189 200 137 193 177 205 201
238 238 235 232 228 227 225 226 230 238 250 266 282 302 318 329 329 332 327 322 321 254 251 355 116 158 167 202 144 120 163 138 134 131 187 262 212 226 191 186 195 131 126 82 97 173 229
225 233 232 228 226 221 222 223 226 235 246 260 279 298 313 319 312 316 318 332 205 231 345 1 351 342 229 156 149 154 170 178 192 177 226 244 214 246 201 218 179 207 179 205 216 217 246
226 222 227 228 223 223 217 218 223 232 244 258 277 295 306 307 302 303 261 155 222 234 260 332 334 266 162 142 75 102 148 175 79 88 113 351 115 189 121 235 234 185 213 236 228 229 239
235 208 213 224 220 217 221 220 220 231 242 260 280 299 305 303 304 243 169 188 235 223 320 326 306 92 100 138 121 108 78 126 203 192 220 180 178 284 223 237 243 141 221 335 159 87 254
232 203 205 210 219 211 211 216 219 226 240 261 290 308 299 268 321 171 180 234 240 250 323 302 19 350 113 71 110 105 81 43 81 163 240 185 246 206 279 230 148 241 131 205 217 239 251
244 216 203 205 211 212 207 210 214 222 231 252 295 310 302 302 150 170 210 229 261 262 267 300 320 334 357 101 93 103 123 91 21 77 149 136 235 172 270 210 241 158 192 175 277 252 265
227 227 199 205 208 207 205 205 210 213 217 223 249 247 340 142 156 209 215 214 279 308 302 289 274 260 276 2 80 103 117 56 358 168 90 66 127 240 271 79 320 311 306 206 257 242 256
220 230 189 200 203 205 202 201 206 204 198 189 188 157 175 104 204 203 233 255 264 257 271 318 295 250 203 58 101 109 128 90 11 68 123 167 67 303 219 145 113 52 177 139 116 197 245
227 202 200 199 198 201 199 199 199 197 188 182 171 157 188 212 243 291 240 235 243 249 236 244 275 297 307 133 34 136 123 57 45 85 81 112 108 287 293 314 309 290 290 300 233 263 291
222 221 206 196 193 197 197 196 195 190 187 178 175 186 195 167 212 227 250 306 284 300 226 205 222 228 200 136 93 114 110 128 67 67 69 33 116 218 256 263 271 271 288 295 252 269 259
220 201 213 193 190 192 194 193 189 189 185 182 159 175 174 175 246 198 181 231 245 241 233 204 215 267 214 202 180 170 147 190 165 94 77 53 152 197 269 303 259 281 282 278 268 268 250
227 212 185 189 191 189 193 189 189 187 185 173 183 170 127 131 204 183 188 224 242 344 237 241 204 27 159 175 179 120 97 113 124 126 109 67 152 232 242 324 309 268 311 294 293 232 257
214 207 197 193 192 192 193 189 187 187 192 190 185 170 153 181 224 204 214 287 229 266 264 339 159 170 151 131 106 94 82 89 85 62 62 137 114 328 300 316 265 40 0 333 318 290 268
199 197 195 181 191 192 192 188 186 192 193 199 188 179 178 218 230 234 282 341 287 235 184 33 46 41 156 165 103 96 61 138 71 46 70 58 131 137 282 295 313 55 29 9 350 307 349
199 193 190 186 190 190 192 187 189 191 191 196 197 202 200 186 199 269 314 16 5 18 119 356 30 98 138 83 96 132 151 112 131 122 76 84 67 249 166 253 269 65 350 339 287 271 2
200 190 189 188 187 192 197 191 193 194 195 192 199 199 195 215 184 169 262 50 28 44 329 356 349 29 43 95 90 128 138 30 176 187 155 148 119 224 170 241 274 24 330 325 258 341 340
172 181 184 190 189 196 188 190 189 191 188 191 197 198 197 208 199 191 133 97 78 42 7 355 205 37 53 76 115 136 160 120 178 135 217 215 194 199 186 245 266 358 1 3 333 322 308
165 181 196 186 182 188 187 192 194 183 182 190 198 196 198 218 240 224 244 256 281 318 18 24 76 71 81 99 111 126 145 164 161 205 159 219 253 61 236 3 46 36 54 9 11 348 45
Wind_Speed_850mb
41 38 35 33 30 26 22 20 17 14 16 21 27 32 37 41 44 46 46 45 42 41 41 42 30 25 22 10 3 5 17 19 22 23 32 32 18 9 8 10 14 11 10 13 15 14 27
44 41 38 35 32 28 25 22 20 17 17 21 28 34 38 42 45 46 45 44 43 40 41 36 26 24 19 5 3 5 14 17 20 27 31 24 12 5 5 7 11 17 8 10 10 17 23
45 44 42 38 34 31 27 24 21 19 21 25 28 33 38 42 45 47 45 42 44 40 38 28 23 23 21 12 8 6 12 13 15 27 31 20 10 3 4 6 7 4 5 5 8 18 12
50 46 44 42 37 33 30 27 24 21 21 26 31 35 39 43 46 46 44 41 42 38 33 24 25 23 10 6 8 10 11 13 16 24 21 16 7 6 5 2 0 7 2 7 5 21 10
53 50 47 44 41 37 33 29 26 24 22 25 30 36 40 45 48 47 42 40 42 35 24 24 25 11 6 4 4 10 11 7 17 21 21 12 7 2 4 6 8 2 10 6 11 10 13
56 53 50 47 44 40 36 32 28 24 23 26 29 33 38 44 49 50 40 36 32 20 13 18 10 5 4 7 5 7 12 15 11 17 13 8 5 5 3 9 20 13 11 6 8 20 22
60 57 54 50 47 43 40 36 30 25 23 24 29 33 35 41 47 43 40 27 26 6 44 16 23 27 31 11 8 5 19 24 11 9 9 4 10 13 7 3 1 4 8 14 9 9 18
64 61 58 54 50 46 42 37 31 26 24 25 28 31 35 39 42 32 24 24 24 21 26 39 28 43 44 37 10 8 25 13 10 10 8 7 16 10 11 8 4 4 8 4 4 4 17
68 66 62 57 53 48 45 39 33 28 25 24 27 30 33 37 30 35 20 33 35 32 10 20 10 13 11 22 16 15 29 17 8 11 11 11 2 17 8 8 9 6 10 9 5 5 3
69 67 65 60 56 51 47 42 36 29 26 24 26 29 33 36 16 38 13 29 36 17 6 8 4 1 12 14 8 16 27 15 4 6 13 7 7 9 9 8 14 11 21 14 14 13 11
71 67 65 61 57 53 49 43 37 31 27 25 25 27 30 32 33 28 21 27 29 4 3 6 4 3 13 12 10 18 28 15 14 10 8 4 10 16 9 7 18 7 10 12 9 16 8
69 65 63 61 57 54 50 45 38 32 28 26 26 27 29 33 35 24 25 19 6 5 8 4 5 5 8 6 6 10 9 7 9 8 1 5 3 6 5 7 16 13 9 6 4 7 16
72 63 61 59 58 54 50 46 40 34 29 27 26 26 30 32 36 34 20 9 5 8 4 5 3 5 6 8 7 6 17 16 11 7 5 4 8 5 7 9 6 7 9 10 14 14 19
74 65 56 57 55 55 52 47 40 34 30 27 26 27 30 32 36 25 7 3 11 4 8 5 5 0 8 4 5 4 13 15 6 6 4 5 6 7 4 10 5 10 9 13 17 19 19
85 70 57 55 56 52 49 45 38 33 29 25 25 26 27 31 18 10 13 7 8 7 6 10 8 5 4 5 7 6 6 4 3 10 8 5 3 4 8 4 4 7 11 4 4 3 8
67 84 66 55 55 54 50 46 39 31 26 20 20 23 18 8 17 24 7 7 6 6 10 5 1 2 4 4 7 6 3 5 1 3 8 5 7 2 2 4 3 10 9 6 3 13 20
47 79 68 61 59 54 51 47 40 31 22 13 13 10 5 16 16 13 7 9 7 10 7 5 2 3 2 3 7 6 3 5 4 4 8 5 4 4 5 9 5 7 7 1 4 6 14
29 63 84 63 61 56 52 46 40 31 20 10 4 2 6 29 7 1 5 6 3 3 4 5 4 3 2 4 6 7 7 3 11 3 6 3 3 5 8 3 7 5 5 5 8 6 4
35 40 76 61 61 56 53 47 41 31 21 12 6 5 20 4 5 6 5 4 5 3 3 4 5 5 3 2 6 8 6 3 12 7 5 9 2 3 2 7 4 4 2 7 7 3 10
38 50 65 66 58 56 53 49 42 32 24 18 8 4 7 14 7 3 3 8 6 6 10 8 5 4 4 2 5 8 8 4 5 9 11 4 4 1 5 7 5 12 13 11 9 7 9
24 52 57 69 61 57 55 52 43 34 28 21 10 4 5 6 9 9 4 5 3 7 7 9 5 12 6 5 4 7 5 5 6 4 6 3 4 4 10 18 12 14 22 20 16 19 11
33 44 59 71 61 62 56 52 43 37 32 24 11 8 6 1 3 6 10 6 11 7 9 8 8 2 17 6 6 13 12 7 4 5 4 3 5 3 6 1 7 16 22 24 22 20 22
44 37 56 71 68 68 62 55 49 42 36 13 17 11 6 3 4 7 8 8 6 3 12 15 6 1 14 8 3 9 4 14 11 7 4 2 5 2 4 7 18 16 14 19 13 9 8
52 50 45 87 69 66 66 58 49 42 38 22 23 14 6 4 6 6 4 6 5 5 7 5 4 11 5 23 28 23 28 25 22 18 7 6 3 1 6 12 10 7 12 12 22 32 22
51 58 59 77 72 77 66 59 51 45 39 30 19 13 8 4 3 5 3 4 8 3 6 3 9 1 15 11 6 6 4 5 11 13 8 3 6 3 4 6 15 8 15 15 16 20 24
56 54 69 78 77 80 68 60 56 48 37 32 23 22 10 4 6 4 3 5 3 4 3 3 11 11 9 4 4 4 5 3 4 6 7 9 6 3 4 5 7 5 18 27 7 15 44
48 60 64 76 87 79 80 63 51 48 40 32 28 25 15 4 5 2 1 3 2 1 1 5 10 7 7 4 5 3 5 1 5 5 5 4 2 6 6 8 11 11 29 12 10 15 55
49 58 64 73 94 77 74 72 55 50 41 38 32 28 19 6 5 6 3 4 4 6 4 9 1 7 4 6 3 4 3 4 4 1 3 5 7 5 4 7 5 36 9 11 23 45 28
31 49 49 78 92 78 71 66 69 49 40 40 34 28 22 8 6 11 12 7 7 4 4 8 4 3 3 6 3 5 4 4 4 4 2 5 4 1 6 6 9 14 16 21 33 25 21
Wind_Direction_850mb
255 256 261 265 270 275 280 285 291 301 320 332 338 343 345 343 341 338 338 337 328 328 331 332 331 337 334 326 147 96 164 167 173 175 176 164 166 159 186 179 155 208 219 220 254 197 201
259 257 254 254 258 264 270 275 283 296 310 323 332 339 342 341 339 336 333 332 327 328 329 328 326 327 321 286 157 111 157 178 187 176 175 173 176 185 153 175 219 188 217 282 294 229 208
256 257 257 256 255 255 257 261 268 282 303 319 328 334 338 338 335 334 333 327 327 327 324 328 328 321 303 264 180 139 154 172 189 183 180 171 138 93 168 191 231 188 212 155 31 156 177
253 253 256 255 253 252 251 252 256 271 292 311 323 330 336 338 334 333 329 323 325 323 315 312 325 318 267 201 175 169 150 167 170 174 175 185 206 294 177 240 190 192 168 224 116 172 169
251 251 249 251 252 250 246 246 253 266 287 304 318 328 336 338 335 332 326 322 325 317 306 302 310 308 274 151 162 180 170 127 159 170 171 159 211 191 160 200 185 90 195 176 156 193 169
249 248 248 246 246 246 244 244 249 261 284 303 316 324 335 339 337 333 329 330 328 314 332 308 295 279 250 148 20 276 175 157 134 153 156 182 145 159 127 201 211 187 171 158 163 192 191
247 246 245 243 243 241 241 242 247 260 279 296 310 320 333 341 342 340 341 354 8 335 317 270 266 278 288 275 308 196 172 174 165 151 164 135 198 201 180 160 120 126 159 162 161 183 181
245 243 241 240 239 239 239 239 244 255 272 290 305 316 331 341 346 354 359 55 27 322 306 307 278 260 256 257 290 214 169 157 166 170 132 160 221 180 137 144 164 149 145 213 308 247 215
244 241 239 237 235 234 236 236 240 250 267 285 301 314 328 340 348 359 1 12 350 339 275 297 272 262 246 203 211 201 172 159 155 156 178 207 124 145 164 146 166 198 211 181 147 49 287
244 240 238 235 232 231 232 233 236 246 261 278 295 311 326 340 355 352 357 340 334 334 301 277 269 232 182 157 209 185 181 162 130 192 171 212 155 192 167 206 195 216 211 208 157 181 229
245 239 236 234 231 229 228 229 232 241 255 271 288 306 324 340 339 353 345 330 326 350 325 15 86 154 168 184 140 187 179 181 174 162 193 114 152 160 174 171 189 200 137 193 177 205 201
238 238 235 232 228 227 225 226 230 238 250 266 282 302 318 329 329 332 327 322 321 254 251 355 116 158 167 202 144 120 163 138 134 131 187 262 212 226 191 186 195 131 126 82 97 173 229
225 233 232 228 226 221 222 223 226 235 246 260 279 298 313 319 312 316 318 332 205 231 345 1 351 342 229 156 149 154 170 178 192 177 226 244 214 246 201 218 179 207 179 205 216 217 246
226 222 227 228 223 223 217 218 223 232 244 258 277 295 306 307 302 303 261 155 222 234 260 332 334 266 162 142 75 102 148 175 79 88 113 351 115 189 121 235 234 185 213 236 228 229 239
235 208 213 224 220 217 221 220 220 231 242 260 280 299 305 303 304 243 169 188 235 223 320 326 306 92 100 138 121 108 78 126 203 192 220 180 178 284 223 237 243 141 221 335 159 87 254
232 203 205 210 219 211 211 216 219 226 240 261 290 308 299 268 321 171 180 234 240 250 323 302 19 350 113 71 110 105 81 43 81 163 240 185 246 206 279 230 148 241 131 205 217 239 251
244 216 203 205 211 212 207 210 214 222 231 252 295 310 302 302 150 170 210 229 261 262 267 300 320 334 357 101 93 103 123 91 21 77 149 136 235 172 270 210 241 158 192 175 277 252 265
227 227 199 205 208 207 205 205 210 213 217 223 249 247 340 142 156 209 215 214 279 308 302 289 274 260 276 2 80 103 117 56 358 168 90 66 127 240 271 79 320 311 306 206 257 242 256
220 230 189 200 203 205 202 201 206 204 198 189 188 157 175 104 204 203 233 255 264 257 271 318 295 250 203 58 101 109 128 90 11 68 123 167 67 303 219 145 113 52 177 139 116 197 245
227 202 200 199 198 201 199 199 199 197 188 182 171 157 188 212 243 291 240 235 243 249 236 244 275 297 307 133 34 136 123 57 45 85 81 112 108 287 293 314 309 290 290 300 233 263 291
222 221 206 196 193 197 197 196 195 190 187 178 175 186 195 167 212 227 250 306 284 300 226 205 222 228 200 136 93 114 110 128 67 67 69 33 116 218 256 263 271 271 288 295 252 269 259
220 201 213 193 190 192 194 193 189 189 185 182 159 175 174 175 246 198 181 231 245 241 233 204 215 267 214 202 180 170 147 190 165 94 77 53 152 197 269 303 259 281 282 278 268 268 250
227 212 185 189 191 189 193 189 189 187 185 173 183 170 127 131 204 183 188 224 242 344 237 241 204 27 159 175 179 120 97 113 124 126 109 67 152 232 242 324 309 268 311 294 293 232 257
214 207 197 193 192 192 193 189 187 187 192 190 185 170 153 181 224 204 214 287 229 266 264 339 159 170 151 131 106 94 82 89 85 62 62 137 114 328 300 316 265 40 0 333 318 290 268
199 197 195 181 191 192 192 188 186 192 193 199 188 179 178 218 230 234 282 341 287 235 184 33 46 41 156 165 103 96 61 138 71 46 70 58 131 137 282 295 313 55 29 9 350 307 349
199 193 190 186 190 190 192 187 189 191 191 196 197 202 200 186 199 269 314 16 5 18 119 356 30 98 138 83 96 132 151 112 131 122 76 84 67 249 166 253 269 65 350 339 287 271 2
200 190 189 188 187 192 197 191 193 194 195 192 199 199 195 215 184 169 262 50 28 44 329 356 349 29 43 95 90 128 138 30 176 187 155 148 119 224 170 241 274 24 330 325 258 341 340
172 181 184 190 189 196 188 190 189 191 188 191 197 198 197 208 199 191 133 97 78 42 7 355 205 37 53 76 115 136 160 120 178 135 217 215 194 199 186 245 266 358 1 3 333 322 308
165 181 196 186 182 188 187 192 194 183 182 190 198 196 198 218 240 224 244 256 281 318 18 24 76 71 81 99 111 126 145 164 161 205 159 219 253 61 236 3 46 36 54 9 11 348 45